Weather History for KRPJ - September, 2013

Change the Weather History Date:

Sunday, September 1, 2013

  Actual Average (KRFD) Record (KRFD)
Temperature  
Mean Temperature 70 °F 69 °F  
Max Temperature 82 °F 80 °F 102 °F (1953)
Min Temperature 58 °F 59 °F 41 °F (1949)
Degree Days  
Heating Degree Days 0 1  
Month to date heating degree days 1  
Since 1 July heating degree days 15  
Cooling Degree Days 5 5  
Month to date cooling degree days 5  
Year to date cooling degree days 732  
Growing Degree Days 20 (Base 50)    
Moisture  
Dew Point 65 °F    
Average Humidity 84    
Maximum Humidity 97    
Minimum Humidity 68    
Precipitation  
Precipitation 0.00 in 0.12 in 1.33 in (1945)
Month to date precipitation 0.12  
Year to date precipitation 25.78  
Snow  
Snow 0.00 in 0.00 in 0.00 in ()
Month to date snowfall 0.0  
Since 1 July snowfall 0.0  
Since 1 September snowfall 0.0  
Snow Depth -    
Sea Level Pressure  
Sea Level Pressure 29.80 in    
Wind  
Wind Speed 1 mph (WNW)    
Max Wind Speed 9 mph    
Max Gust Speed 16 mph    
Visibility 7 miles    
Events Fog , Rain , Thunderstorm    
T = Trace of Precipitation, MM = Missing Value Source: NWS Daily Summary

Daily Weather History Graph

Daily Weather History Graph

Search for Another Location

Airport or City:

Trip Planner

Search our weather history database for the weather conditions in past years. The results will help you decide how hot, cold, wet, or windy it might be!

Date:

Astronomy

Sep. 01, 2013 Rise Set
Actual Time 6:22 AM CDT 7:29 PM CDT
Civil Twilight 5:53 AM CDT 7:57 PM CDT
Nautical Twilight 5:19 AM CDT 8:32 PM CDT
Astronomical Twilight 4:43 AM CDT 9:07 PM CDT
Moon 2:41 AM CDT (9/1) 5:08 PM CDT (9/1)
Length of Visible Light 14h 04m
Length of Day
13h 07m
Waning Crescent, 13% of the Moon is Illuminated
Sep 1
Waning Crescent
Sep 5
New
Sep 12
First Quarter
Sep 19
Full
Sep 26
Last Quarter

Hourly Weather History & Observations

Time (CDT) Temp. Heat Index Dew Point Humidity Pressure Visibility Wind Dir Wind Speed Gust Speed Precip Events Conditions
12:15 AM 64.8 °F - 63.1 °F 94% 29.83 in 5.0 mi Calm Calm - N/A   Clear
12:35 AM 64.6 °F - 62.8 °F 94% 29.83 in 7.0 mi Calm Calm - N/A   Clear
12:55 AM 63.5 °F - 61.7 °F 94% 29.83 in 7.0 mi Calm Calm - N/A   Clear
1:15 AM 63.0 °F - 61.7 °F 96% 29.83 in 7.0 mi Calm Calm - N/A   Clear
1:35 AM 62.2 °F - 60.8 °F 95% 29.83 in 7.0 mi Calm Calm - N/A   Clear
1:55 AM 62.1 °F - 60.6 °F 95% 29.82 in 7.0 mi Calm Calm - N/A   Clear
2:15 AM 62.2 °F - 60.8 °F 95% 29.83 in 7.0 mi Calm Calm - N/A   Clear
2:35 AM 62.4 °F - 61.0 °F 95% 29.83 in 7.0 mi Calm Calm - N/A   Clear
2:55 AM 61.7 °F - 60.4 °F 96% 29.82 in 7.0 mi Calm Calm - N/A   Clear
3:15 AM 60.6 °F - 59.2 °F 95% 29.83 in 5.0 mi Calm Calm - N/A   Clear
3:35 AM 60.8 °F - 59.4 °F 95% 29.81 in 5.0 mi Calm Calm - N/A   Clear
3:55 AM 59.9 °F - 58.8 °F 96% 29.81 in 5.0 mi Calm Calm - N/A   Clear
4:15 AM 59.2 °F - 58.1 °F 96% 29.79 in 4.0 mi Calm Calm - N/A   Scattered Clouds
4:35 AM 59.4 °F - 58.3 °F 96% 29.79 in 0.8 mi Calm Calm - N/A   Overcast
4:55 AM 58.5 °F - 57.4 °F 96% 29.80 in 0.5 mi Calm Calm - N/A Fog Fog
5:15 AM 58.5 °F - 57.4 °F 96% 29.80 in 0.5 mi Calm Calm - N/A Fog Fog
5:35 AM 58.3 °F - 57.2 °F 96% 29.80 in 1.0 mi Calm Calm - N/A   Overcast
5:55 AM 58.5 °F - 57.4 °F 96% 29.81 in 0.5 mi Calm Calm - N/A Fog Fog
6:15 AM 59.2 °F - 58.1 °F 96% 29.82 in 2.0 mi Calm Calm - N/A   Overcast
6:35 AM 59.5 °F - 58.5 °F 96% 29.82 in 0.2 mi Calm Calm - N/A Fog Fog
6:55 AM 59.4 °F - 58.3 °F 96% 29.82 in 0.2 mi Calm Calm - N/A Fog Fog
7:15 AM 59.9 °F - 59.0 °F 97% 29.81 in 0.2 mi Calm Calm - N/A Fog Fog
7:35 AM 60.3 °F - 59.2 °F 96% 29.81 in 0.2 mi Calm Calm - N/A Fog Fog
7:55 AM 61.5 °F - 60.4 °F 96% 29.80 in 0.2 mi Calm Calm - N/A Fog Fog
8:15 AM 63.1 °F - 62.1 °F 96% 29.81 in 0.8 mi Calm Calm - N/A   Overcast
8:35 AM 64.4 °F - 63.5 °F 97% 29.82 in 1.0 mi Calm Calm - N/A   Overcast
8:55 AM 66.0 °F - 64.9 °F 96% 29.83 in 3.0 mi Calm Calm - N/A   Mostly Cloudy
9:15 AM 66.6 °F - 65.5 °F 96% 29.82 in 4.0 mi WSW 3.5 mph - N/A   Scattered Clouds
9:35 AM 68.2 °F - 66.9 °F 96% 29.82 in 7.0 mi Calm Calm - N/A   Clear
9:55 AM 70.3 °F - 66.9 °F 89% 29.82 in 10.0 mi Calm Calm - N/A   Clear
10:15 AM 72.5 °F - 68.0 °F 86% 29.83 in 10.0 mi WNW 4.6 mph - N/A   Scattered Clouds
10:35 AM 74.8 °F - 68.4 °F 80% 29.83 in 10.0 mi NW 5.8 mph - N/A   Mostly Cloudy
10:55 AM 75.7 °F - 68.5 °F 78% 29.82 in 10.0 mi WNW 6.9 mph - N/A   Scattered Clouds
11:15 AM 75.7 °F - 68.5 °F 78% 29.81 in 10.0 mi NW 3.5 mph - N/A   Scattered Clouds
11:35 AM 76.1 °F - 68.9 °F 78% 29.81 in 10.0 mi Calm Calm - N/A   Mostly Cloudy
11:55 AM 77.9 °F - 69.3 °F 75% 29.80 in 10.0 mi Calm Calm - N/A   Scattered Clouds
12:15 PM 78.3 °F - 69.4 °F 74% 29.80 in 10.0 mi Calm Calm - N/A   Mostly Cloudy
12:35 PM 78.6 °F - 69.4 °F 73% 29.79 in 10.0 mi Calm Calm - N/A   Mostly Cloudy
12:55 PM 79.5 °F - 70.2 °F 73% 29.79 in 10.0 mi Calm Calm - N/A   Scattered Clouds
1:15 PM 79.5 °F - 70.2 °F 73% 29.79 in 10.0 mi Calm Calm - N/A   Mostly Cloudy
1:35 PM 80.8 °F 84.4 °F 70.5 °F 71% 29.79 in 10.0 mi SE 3.5 mph - N/A   Scattered Clouds
1:55 PM 81.5 °F 85.1 °F 70.2 °F 68% 29.78 in 10.0 mi Calm Calm - N/A   Clear
2:15 PM 82.2 °F 86.4 °F 70.5 °F 68% 29.78 in 10.0 mi Calm Calm - N/A   Clear
2:35 PM 80.6 °F 84.4 °F 71.1 °F 73% 29.77 in 10.0 mi SW 4.6 mph - N/A Rain Rain
2:55 PM 79.5 °F - 72.1 °F 78% 29.77 in 10.0 mi Calm Calm - N/A Rain , Thunderstorm Light Thunderstorms and Rain
3:15 PM 79.0 °F - 73.2 °F 82% 29.77 in 10.0 mi Calm Calm - N/A   Scattered Clouds
3:35 PM 77.5 °F - 72.7 °F 85% 29.77 in 10.0 mi SSE 9.2 mph - N/A   Scattered Clouds
3:55 PM 79.0 °F - 71.8 °F 78% 29.77 in 10.0 mi South 6.9 mph 16.1 mph N/A   Scattered Clouds
4:15 PM 80.2 °F 84.2 °F 72.0 °F 76% 29.76 in 10.0 mi SSE 5.8 mph - N/A   Scattered Clouds
4:35 PM 80.4 °F 83.9 °F 70.5 °F 72% 29.75 in 10.0 mi SSE 4.6 mph - N/A   Clear
4:55 PM 80.4 °F 84.1 °F 71.1 °F 73% 29.76 in 10.0 mi SSE 8.1 mph - N/A   Clear
5:15 PM 80.4 °F 84.5 °F 72.3 °F 76% 29.76 in 10.0 mi SSE 4.6 mph - N/A   Scattered Clouds
5:35 PM 80.2 °F 84.6 °F 73.2 °F 79% 29.76 in 10.0 mi Calm Calm - N/A   Scattered Clouds
5:55 PM 80.1 °F 84.5 °F 73.8 °F 81% 29.76 in 10.0 mi Calm Calm - N/A   Scattered Clouds
6:15 PM 79.7 °F - 73.6 °F 81% 29.76 in 10.0 mi Calm Calm - N/A Thunderstorm Unknown
6:35 PM 78.6 °F - 73.6 °F 84% 29.76 in 10.0 mi Calm Calm - N/A   Scattered Clouds
6:55 PM 77.0 °F - 72.0 °F 84% 29.76 in 10.0 mi Calm Calm - N/A   Scattered Clouds
7:15 PM 75.9 °F - 71.8 °F 87% 29.76 in 10.0 mi Calm Calm - N/A   Scattered Clouds
7:35 PM 75.6 °F - 70.9 °F 85% 29.77 in 10.0 mi NW 4.6 mph - N/A   Mostly Cloudy
7:55 PM 76.1 °F - 70.7 °F 83% 29.78 in 10.0 mi NW 4.6 mph - N/A   Mostly Cloudy
8:15 PM 76.1 °F - 67.6 °F 75% 29.79 in 10.0 mi NW 6.9 mph - N/A   Overcast
8:35 PM 75.7 °F - 65.5 °F 70% 29.80 in 10.0 mi NW 5.8 mph - N/A   Overcast
8:55 PM 75.2 °F - 64.4 °F 69% 29.81 in 10.0 mi NW 5.8 mph - N/A   Overcast
9:15 PM 74.1 °F - 63.5 °F 69% 29.82 in 10.0 mi NW 4.6 mph - N/A   Mostly Cloudy
9:35 PM 73.4 °F - 63.1 °F 70% 29.83 in 10.0 mi NW 6.9 mph - N/A   Mostly Cloudy
9:55 PM 73.0 °F - 62.1 °F 68% 29.83 in 10.0 mi NNW 8.1 mph - N/A   Overcast
10:15 PM 72.1 °F - 61.5 °F 69% 29.83 in 10.0 mi NNW 8.1 mph - N/A   Mostly Cloudy
10:35 PM 71.6 °F - 61.0 °F 69% 29.84 in 10.0 mi NNW 9.2 mph - N/A   Mostly Cloudy
10:55 PM 71.1 °F - 60.8 °F 70% 29.84 in 10.0 mi NNW 6.9 mph - N/A   Overcast
11:15 PM 69.6 °F - 61.2 °F 74% 29.85 in 10.0 mi NNW 5.8 mph - N/A   Mostly Cloudy
11:35 PM 68.0 °F - 61.7 °F 80% 29.85 in 10.0 mi NNW 4.6 mph - N/A   Scattered Clouds
11:55 PM 66.6 °F - 61.3 °F 83% 29.86 in 10.0 mi NW 4.6 mph - N/A   Mostly Cloudy